STARLINK-2746, 48676

Orbit data source: Space-Track

STARLINK-2746, 48676 is a payload satellite owned by SpaceX/Seattle (US) in LEO that was launched on Wed, 26 May 2021 UTC via an FALCON 9 launch vehicle from the Air Force Eastern Test Range (AFETR). Payload-class satellites include a variety of spacecraft equipped with specific instruments for various scientific and technological missions. These include communications satellites like Starlink; space stations such as the ISS; scientific satellites like the Hubble; Earth observation satellites from companies like Planet Labs, Umbra, and HawkEye 360; GPS; miniature CubeSats for education and research; and military/defense satellites.

Loading next visibility...
Identifier
48676, 2021-044AQ
Orbit
LEO
Country
Flag of USUS
Related business
Manufacturer
SpaceX/Seattle
Mission
Operational Commercial Communications
Bus & Motor
STARLINK, Unknown motor
Mass
260 kg wet, ~248 kg dry
Launch date (UTC)
2021-05-26 (5 years ago)
Launch vehicle
FALCON 9
Launch site
Air Force Eastern Test Range (AFETR)
Object type
Payload
Rocket body
Debris
Shape & HBR
Box + 1 Pan, 10.1 m
Radar Cross Section
13.562 m², Large (>1 m²)

Expand to show TLE details & history
Last TLE update: 3 days ago

TLE from 3 days ago
0 STARLINK-2746
1 48676U 21044AQ  26170.94077963 -.00003594  00000-0 -11227-3 0  9992
2 48676  53.1588 359.1514 0000850 100.1523 259.9574 15.29356381279468
Epoch: 2026-06-19T22:34Z
TLE epoch observation values (Epoch: 2026-06-19T22:34:43.360Z)
Latitude
0.00006°
Longitude
112.30824°
Altitude
478.736 km
Speed
7.627 km/s
True Right ascension
23h 56m 36s
True Declination
0° 00' 00"
Sunlit
Object was in daylight at epoch
Visualization orbit readout
Latitude
Unknown
Longitude
Unknown
Altitude
Unknown
Speed
Unknown
Apparent Right ascension
Unknown
Apparent Declination
Unknown
Sunlit
N/A
Visualization observer readout
Local Sidereal Time
00:50:55
Azimuth
Unknown
Elevation
Unknown
Doppler factor
Unknown
Orbital elements
Apogee altitude
478.574 km
Perigee altitude
477.409 km
Semi-major axis
6,856.129 km
Eccentricity
0.00009
Inclination
53.1588°
RAAN
359.1514°
Arg. of periapsis
100.1523°
True anomaly
259.94781°
Mean anomaly
259.9574°
Eccentric anomaly
259.9526°
Mean motion
3.82318 °/min
Orbital period
94.16 mins
BSTAR
-0.00011227
Loading maneuver chart data...
Computing Atmospheric mass density...

Documentation

Showing up to 5 results
|